• Join FlightAware (Why Join?)
  • Login
  • US Flag 
01:55PM EST


 

Airport Tracker/Info


-or-


 

Live Flight TrackerFlight Track Log ✈ AAY834 ✈ 30-Apr-2012 ✈ KPIE - KGSO

Flight Track Log - Related Links

Times and Time Zones

All times are in EDT time to prevent confusion due to time zone crossing. See the AAY834 flight status page for this flight to view local times or setup timezone preferences in your user account.

Time Position Orientation Groundspeed Altitude Reporting Facility
EDT Latitude Longitude Course Direction KTS MPH feet Rate Location/Type
01:43PM 27.9333 -82.7000 24° Northeast 168 193 1,400  Level Tampa TRACON
01:44PM 28.0000 -82.6667 10° North 237 273 3,200 2,091 Climbing Tampa TRACON
01:45PM 28.0833 -82.6500 18° North 265 305 6,000 1,948 Climbing Tampa TRACON
01:47PM 28.2225 -82.5981 16° North 259 298 9,400 1,602 Climbing Jacksonville Center
01:48PM 28.3019 -82.5719 350° North 275 316 11,100 1,600 Climbing Jacksonville Center
01:49PM 28.4019 -82.5928 332° Northwest 325 374 12,600 1,950 Climbing Jacksonville Center
01:50PM 28.5025 -82.6539 344° North 353 406 15,000 2,400 Climbing Jacksonville Center
01:51PM 28.6150 -82.6917 347° North 393 452 17,400 2,100 Climbing Jacksonville Center
01:52PM 28.7258 -82.7197 348° North 406 467 19,200 1,700 Climbing Jacksonville Center
01:53PM 28.8428 -82.7481 353° North 411 473 20,800 1,650 Climbing Jacksonville Center
01:54PM 28.9639 -82.7644 357° North 425 489 22,500 1,650 Climbing Jacksonville Center
01:55PM 29.0869 -82.7714 359° North 431 496 24,100 1,600 Climbing Jacksonville Center
01:56PM 29.2122 -82.7736 North 442 509 25,700 950 Climbing Jacksonville Center
01:57PM 29.3353 -82.7544 North 442 509 26,000 450 Climbing Jacksonville Center
01:58PM 29.4628 -82.7400 North 442 509 26,600 1,050 Climbing Jacksonville Center
01:59PM 29.5858 -82.7303 North 442 509 28,100 1,350 Climbing Jacksonville Center
02:00PM 29.7111 -82.7156 North 442 509 29,300 1,250 Climbing Jacksonville Center
02:01PM 29.8364 -82.7033 North 442 509 30,600 1,388 Climbing Jacksonville Center
02:02PM 29.9553 -82.6936 10° North 442 509 32,100 992 Climbing Jacksonville Center
02:03PM 30.0764 -82.6694 13° North 436 502 32,600 450 Climbing Jacksonville Center
02:04PM 30.1931 -82.6378 13° North 441 507 33,000 200 Climbing Jacksonville Center
02:05PM 30.3164 -82.6039 13° North 441 507 33,000  Level Jacksonville Center
02:06PM 30.4331 -82.5722 15° North 436 502 33,000  Level Jacksonville Center
02:07PM 30.5542 -82.5356 19° North 436 502 33,000  Level Jacksonville Center
02:08PM 30.6689 -82.4892 19° North 436 502 33,000  Level Jacksonville Center
02:09PM 30.7878 -82.4428 19° North 436 502 33,000  Level Jacksonville Center
02:10PM 30.9044 -82.3961 19° North 441 507 33,000  Level Jacksonville Center
02:11PM 31.0233 -82.3494 19° North 441 507 33,000  Level Jacksonville Center
02:12PM 31.1381 -82.3028 18° North 441 507 33,000  Level Jacksonville Center
02:13PM 31.2567 -82.2583 20° North 441 507 33,000  Level Jacksonville Center
02:14PM 31.3733 -82.2089 19° North 441 507 33,000  Level Jacksonville Center
02:15PM 31.4922 -82.1617 19° North 441 507 33,000  Level Jacksonville Center
02:16PM 31.6108 -82.1144 18° North 441 507 33,000  Level Jacksonville Center
02:17PM 31.7336 -82.0669 19° North 430 495 33,000  Level Jacksonville Center
02:18PM 31.8358 -82.0244 19° North 430 495 33,000  Level Jacksonville Center
02:19PM 31.9669 -81.9717 22° Northeast 430 495 33,000  Level Jacksonville Center
02:20PM 32.0814 -81.9167 21° North 435 501 33,000  Level Jacksonville Center
02:21PM 32.1811 -81.8714 21° North 435 501 33,000  Level Jacksonville Center
02:22PM 32.3081 -81.8136 22° Northeast 435 501 33,000  Level Jacksonville Center
02:23PM 32.4225 -81.7581 23° Northeast 435 501 33,000  Level Jacksonville Center
02:24PM 32.5242 -81.7075 24° Northeast 430 495 33,000  Level Jacksonville Center
02:25PM 32.6447 -81.6442 34° Northeast 435 501 33,000  Level Jacksonville Center
02:26PM 32.7358 -81.5714 34° Northeast 429 494 33,000  Level Jacksonville Center
02:27PM 32.8392 -81.4883 32° Northeast 434 499 33,000  Level Jacksonville Center
02:28PM 32.9428 -81.4097 34° Northeast 434 499 33,000  Level Jacksonville Center
02:29PM 33.0461 -81.3264 32° Northeast 434 499 33,000  Level Jacksonville Center
02:30PM 33.1517 -81.2475 34° Northeast 434 499 33,000  Level Jacksonville Center
02:31PM 33.2569 -81.1636 33° Northeast 439 505 33,000  Level Jacksonville Center
02:32PM 33.3581 -81.0847 33° Northeast 439 505 33,000  Level Jacksonville Center
02:33PM 33.4653 -81.0028 29° Northeast 439 505 33,000 -350 Level Jacksonville Center
02:34PM 33.5750 -80.9306 North 439 505 32,300 -800 Descending Jacksonville Center
02:35PM 33.6956 -80.9081 North 434 499 31,400 -942 Descending Jacksonville Center
02:36PM 33.8186 -80.8953 North 434 499 30,400 -1,000 Descending Jacksonville Center
02:37PM 33.9456 -80.8822 North 434 499 29,400 -706 Descending Jacksonville Center
02:38PM 34.0706 -80.8694 North 444 511 29,000 -200 Descending Jacksonville Center
02:39PM 34.1956 -80.8614 North 444 511 29,000 -400 Level Jacksonville Center
02:40PM 34.3269 -80.8558 42° Northeast 433 498 28,200 -950 Descending Jacksonville Center
02:41PM 34.4150 -80.7581 56° Northeast 427 491 27,100 -1,190 Descending Jacksonville Center
02:42PM 34.4878 -80.6253 58° Northeast 418 481 25,800 -1,300 Descending Jacksonville Center
02:43PM 34.5522 -80.5003 58° Northeast 431 496 24,500 -908 Descending Jacksonville Center
02:44PM 34.6186 -80.3722 57° Northeast 431 496 24,000 -829 Descending Jacksonville Center
02:46PM 34.7133 -80.1928 58° Northeast 417 480 22,400 -1,176 Descending Washington Center
02:47PM 34.7764 -80.0700 42° Northeast 422 486 21,000 -694 Descending Washington Center
02:48PM 34.8525 -79.9856 43° Northeast 416 479 21,000 -200 Level Washington Center
02:49PM 34.9442 -79.8817 41° Northeast 411 473 20,600 -1,059 Descending Washington Center
02:50PM 35.0308 -79.7900 42° Northeast 406 467 18,900 -1,500 Descending Washington Center
02:51PM 35.1111 -79.7025 28° Northeast 395 455 17,600 -1,339 Descending Washington Center
02:52PM 35.1919 -79.6508 344° North 359 413 16,200 -1,400 Descending Washington Center
03:00PM 35.9616 -79.9170 345° North  Level FlightAware Approximate
03:01PM 36.0566 -79.9478 North  Level FlightAware Approximate
03:02PM 36.1710 -79.9307 182° South  Level Estimated
03:03PM 36.1000 -79.9333 282° West  Level FlightAware Approximate
03:04PM 36.1237 -80.0730 282° West  Level Estimated